N93SJ LIPZ-LFML

Flight info

Callsign N93SJ
Flight time 1h 38m
Altitude 29000
Route CHI6L/04R CHI DCT NEVMO DCT ENOBA DCT ASBOP/N0269F190 Z185 BORDI/N0274F220 DCT PIGOS/N0276F230 DCT STP/N0265F180 A3 RUBIT G7 LANKO
Aircraft SF50/L-BDGRSWY/LB2U2

Departure

Time 2026-05-06 13:55
Airport Venice Marco Polo Airport (LIPZ)

Arrival

Time 2026-05-06 15:33
Airport Marseille Provence Airport (LFML)
Time Latitude Longitude Altitude Speed Heading
2026-05-06 13:42 45.49863 12.33700 10 ft 0 kts 42°
2026-05-06 13:53 45.49863 12.33743 9 ft 10 kts 111°
2026-05-06 13:53 45.49805 12.33726 10 ft 13 kts 223°
2026-05-06 13:53 45.49727 12.33645 10 ft 16 kts 207°
2026-05-06 13:53 45.49626 12.33542 10 ft 19 kts 221°
2026-05-06 13:54 45.49522 12.33579 10 ft 18 kts 130°
2026-05-06 13:54 45.49439 12.33714 9 ft 17 kts 130°
2026-05-06 13:54 45.49470 12.33847 8 ft 26 kts 43°
2026-05-06 13:54 45.49763 12.34223 7 ft 86 kts 44°
2026-05-06 13:55 45.50269 12.34908 235 ft 111 kts 49°
2026-05-06 13:55 45.50847 12.35747 631 ft 130 kts 50°
2026-05-06 13:55 45.51507 12.36759 1255 ft 143 kts 51°
2026-05-06 13:55 45.52247 12.37780 2009 ft 156 kts 42°
2026-05-06 13:56 45.53065 12.38862 2893 ft 166 kts 50°
2026-05-06 13:56 45.53512 12.40405 3855 ft 174 kts 91°
2026-05-06 13:56 45.53077 12.41966 4771 ft 172 kts 137°
2026-05-06 13:56 45.52082 12.42757 5528 ft 165 kts 176°
2026-05-06 13:57 45.50976 12.42577 6258 ft 159 kts 198°
2026-05-06 13:57 45.49895 12.42196 6963 ft 160 kts 196°
2026-05-06 13:57 45.48809 12.41847 7682 ft 160 kts 196°
2026-05-06 13:57 45.47736 12.41497 8407 ft 159 kts 196°
2026-05-06 13:58 45.46683 12.41149 9140 ft 150 kts 197°
2026-05-06 13:58 45.45685 12.40822 9805 ft 143 kts 197°
2026-05-06 13:58 45.44732 12.40504 10368 ft 138 kts 197°
2026-05-06 13:58 45.43816 12.40202 10919 ft 134 kts 197°
2026-05-06 13:59 45.42877 12.39886 11222 ft 149 kts 197°
2026-05-06 13:59 45.41795 12.39526 11346 ft 171 kts 196°
2026-05-06 13:59 45.40622 12.39140 11805 ft 172 kts 196°
2026-05-06 13:59 45.39451 12.38755 12274 ft 173 kts 196°
2026-05-06 14:00 45.38274 12.38367 12720 ft 173 kts 196°
2026-05-06 14:00 45.37096 12.37980 13169 ft 174 kts 196°
2026-05-06 14:00 45.35933 12.37596 13602 ft 174 kts 196°
2026-05-06 14:00 45.34743 12.37207 14019 ft 175 kts 196°
2026-05-06 14:01 45.33547 12.36815 14457 ft 176 kts 196°
2026-05-06 14:01 45.32355 12.36422 14873 ft 178 kts 196°
2026-05-06 14:01 45.31150 12.36021 15270 ft 179 kts 196°
2026-05-06 14:01 45.29931 12.35622 15643 ft 179 kts 196°
2026-05-06 14:02 45.28715 12.35219 16010 ft 180 kts 197°
2026-05-06 14:02 45.27488 12.34817 16388 ft 181 kts 197°
2026-05-06 14:02 45.26270 12.34414 16747 ft 182 kts 197°
2026-05-06 14:02 45.25027 12.34009 17115 ft 183 kts 197°
2026-05-06 14:03 45.23792 12.33603 17467 ft 184 kts 197°
2026-05-06 14:03 45.22538 12.33192 17821 ft 185 kts 197°
2026-05-06 14:03 45.21280 12.32779 18166 ft 186 kts 197°
2026-05-06 14:03 45.20009 12.32365 18485 ft 187 kts 197°
2026-05-06 14:04 45.18752 12.31952 18803 ft 187 kts 197°
2026-05-06 14:04 45.17471 12.31533 19129 ft 188 kts 197°
2026-05-06 14:04 45.16204 12.31116 19435 ft 188 kts 198°
2026-05-06 14:04 45.14922 12.30697 19739 ft 189 kts 198°
2026-05-06 14:05 45.13631 12.30273 20049 ft 190 kts 198°
2026-05-06 14:05 45.12357 12.29857 20350 ft 190 kts 198°
2026-05-06 14:05 45.11058 12.29431 20652 ft 191 kts 198°
2026-05-06 14:05 45.09805 12.28883 20892 ft 190 kts 207°
2026-05-06 14:06 45.08649 12.27965 21215 ft 188 kts 217°
2026-05-06 14:06 45.07673 12.26775 21542 ft 187 kts 226°
2026-05-06 14:06 45.06871 12.25319 21873 ft 187 kts 235°
2026-05-06 14:06 45.06291 12.23679 22209 ft 189 kts 245°
2026-05-06 14:07 45.05926 12.21890 22635 ft 189 kts 250°
2026-05-06 14:07 45.05583 12.20112 23088 ft 189 kts 249°
2026-05-06 14:07 45.05231 12.18321 23591 ft 188 kts 249°
2026-05-06 14:07 45.04889 12.16533 24000 ft 187 kts 249°
2026-05-06 14:08 45.04552 12.14768 24357 ft 187 kts 249°
2026-05-06 14:08 45.04215 12.13007 24726 ft 184 kts 249°
2026-05-06 14:08 45.03883 12.11268 25060 ft 182 kts 249°
2026-05-06 14:08 45.03548 12.09546 25396 ft 181 kts 249°
2026-05-06 14:09 45.03225 12.07856 25738 ft 180 kts 249°
2026-05-06 14:09 45.02893 12.06145 26053 ft 179 kts 249°
2026-05-06 14:09 45.02570 12.04464 26359 ft 177 kts 248°
2026-05-06 14:09 45.02245 12.02786 26660 ft 176 kts 248°
2026-05-06 14:10 45.01922 12.01110 26977 ft 175 kts 248°
2026-05-06 14:10 45.01604 11.99477 27285 ft 174 kts 248°
2026-05-06 14:10 45.01287 11.97827 27586 ft 173 kts 248°
2026-05-06 14:10 45.00969 11.96190 27891 ft 172 kts 248°
2026-05-06 14:11 45.00654 11.94558 28191 ft 171 kts 248°
2026-05-06 14:11 45.00343 11.92955 28486 ft 170 kts 248°
2026-05-06 14:11 45.00036 11.91359 28887 ft 165 kts 248°
2026-05-06 14:11 44.99720 11.89757 28909 ft 176 kts 248°
2026-05-06 14:12 44.99384 11.88034 28915 ft 185 kts 248°
2026-05-06 14:12 44.99038 11.86258 28916 ft 193 kts 248°
2026-05-06 14:12 44.98676 11.84397 28913 ft 200 kts 248°
2026-05-06 14:12 44.98298 11.82461 28921 ft 206 kts 249°
2026-05-06 14:13 44.97915 11.80500 28924 ft 212 kts 249°
2026-05-06 14:13 44.97516 11.78461 28921 ft 218 kts 249°
2026-05-06 14:13 44.97106 11.76360 28924 ft 224 kts 249°
2026-05-06 14:13 44.96688 11.74230 28921 ft 230 kts 249°
2026-05-06 14:14 44.96254 11.72011 28921 ft 235 kts 249°
2026-05-06 14:14 44.95818 11.69787 28920 ft 239 kts 249°
2026-05-06 14:14 44.95370 11.67501 28921 ft 242 kts 249°
2026-05-06 14:14 44.94919 11.65213 28925 ft 245 kts 249°
2026-05-06 14:15 44.94457 11.62862 28924 ft 248 kts 249°
2026-05-06 14:15 44.93999 11.60534 28924 ft 250 kts 249°
2026-05-06 14:15 44.93527 11.58146 28923 ft 252 kts 249°
2026-05-06 14:15 44.93054 11.55744 28922 ft 253 kts 249°
2026-05-06 14:16 44.92584 11.53373 28927 ft 253 kts 249°
2026-05-06 14:16 44.92111 11.50986 28924 ft 252 kts 249°
2026-05-06 14:16 44.91638 11.48602 28922 ft 252 kts 249°
2026-05-06 14:16 44.91324 11.47023 28923 ft 251 kts 249°
2026-05-06 14:17 44.90701 11.43888 28918 ft 248 kts 249°
2026-05-06 14:17 44.90390 11.42331 28921 ft 247 kts 249°
2026-05-06 14:17 44.89769 11.39217 28917 ft 248 kts 249°
2026-05-06 14:17 44.89478 11.37644 28915 ft 249 kts 250°
2026-05-06 14:18 44.88918 11.34483 28920 ft 251 kts 250°
2026-05-06 14:18 44.88630 11.32863 28920 ft 252 kts 250°
2026-05-06 14:18 44.88204 11.30488 28921 ft 253 kts 250°
2026-05-06 14:18 44.87774 11.28086 28922 ft 252 kts 250°
2026-05-06 14:19 44.87343 11.25685 28921 ft 251 kts 250°
2026-05-06 14:19 44.86920 11.23334 28922 ft 250 kts 250°
2026-05-06 14:19 44.86492 11.20952 28921 ft 249 kts 250°
2026-05-06 14:19 44.86065 11.18589 28920 ft 248 kts 250°
2026-05-06 14:20 44.85642 11.16250 28915 ft 249 kts 250°
2026-05-06 14:20 44.85213 11.13881 28911 ft 250 kts 250°
2026-05-06 14:20 44.84779 11.11483 28918 ft 251 kts 250°
2026-05-06 14:20 44.84352 11.09127 28915 ft 252 kts 250°
2026-05-06 14:21 44.83913 11.06717 28919 ft 253 kts 250°
2026-05-06 14:21 44.83481 11.04333 28920 ft 253 kts 250°
2026-05-06 14:21 44.83043 11.01926 28920 ft 251 kts 249°
2026-05-06 14:21 44.82614 10.99569 28911 ft 250 kts 249°
2026-05-06 14:22 44.82181 10.97190 28908 ft 249 kts 249°
2026-05-06 14:22 44.81747 10.94820 28907 ft 248 kts 249°
2026-05-06 14:22 44.81316 10.92458 28905 ft 248 kts 249°
2026-05-06 14:22 44.80887 10.90118 28908 ft 249 kts 249°
2026-05-06 14:23 44.80451 10.87737 28906 ft 250 kts 249°
2026-05-06 14:23 44.80017 10.85377 28907 ft 251 kts 249°
2026-05-06 14:23 44.79577 10.82980 28902 ft 252 kts 249°
2026-05-06 14:23 44.79137 10.80593 28906 ft 253 kts 249°
2026-05-06 14:24 44.78694 10.78189 28907 ft 252 kts 249°
2026-05-06 14:24 44.78254 10.75803 28907 ft 251 kts 249°
2026-05-06 14:24 44.77820 10.73458 28905 ft 250 kts 249°
2026-05-06 14:24 44.77382 10.71091 28904 ft 249 kts 249°
2026-05-06 14:25 44.76943 10.68726 28909 ft 248 kts 249°
2026-05-06 14:25 44.76512 10.66405 28928 ft 249 kts 249°
2026-05-06 14:25 44.76071 10.64031 28899 ft 250 kts 249°
2026-05-06 14:25 44.75636 10.61682 28898 ft 249 kts 249°
2026-05-06 14:26 44.75197 10.59324 28899 ft 249 kts 248°
2026-05-06 14:26 44.74755 10.56955 28898 ft 249 kts 249°
2026-05-06 14:26 44.74319 10.54613 28898 ft 248 kts 248°
2026-05-06 14:26 44.73878 10.52253 28906 ft 248 kts 248°
2026-05-06 14:27 44.73444 10.49929 28898 ft 248 kts 248°
2026-05-06 14:27 44.73002 10.47574 28898 ft 248 kts 248°
2026-05-06 14:27 44.72559 10.45221 28898 ft 248 kts 248°
2026-05-06 14:27 44.72124 10.42902 28898 ft 247 kts 248°
2026-05-06 14:28 44.71681 10.40550 28900 ft 247 kts 248°
2026-05-06 14:28 44.71245 10.38231 28887 ft 248 kts 248°
2026-05-06 14:28 44.70798 10.35871 28887 ft 250 kts 248°
2026-05-06 14:28 44.70354 10.33514 28878 ft 252 kts 248°
2026-05-06 14:29 44.69903 10.31129 28868 ft 253 kts 248°
2026-05-06 14:29 44.69451 10.28728 28863 ft 251 kts 248°
2026-05-06 14:29 44.69006 10.26381 28863 ft 250 kts 248°
2026-05-06 14:29 44.68560 10.24029 28868 ft 248 kts 248°
2026-05-06 14:30 44.68121 10.21713 28865 ft 247 kts 248°
2026-05-06 14:30 44.67677 10.19377 28866 ft 247 kts 248°
2026-05-06 14:30 44.67228 10.17028 28864 ft 248 kts 248°
2026-05-06 14:30 44.66785 10.14704 28865 ft 249 kts 248°
2026-05-06 14:31 44.66332 10.12338 28872 ft 251 kts 248°
2026-05-06 14:31 44.65879 10.09961 28877 ft 252 kts 248°
2026-05-06 14:31 44.65428 10.07602 28875 ft 252 kts 248°
2026-05-06 14:31 44.64976 10.05239 28875 ft 248 kts 248°
2026-05-06 14:32 44.64527 10.02903 28873 ft 246 kts 247°
2026-05-06 14:32 44.63947 10.00649 28867 ft 245 kts 242°
2026-05-06 14:32 44.63297 9.98431 28868 ft 248 kts 243°
2026-05-06 14:32 44.62697 9.96155 28868 ft 248 kts 244°
2026-05-06 14:33 44.62123 9.93883 28867 ft 246 kts 244°
2026-05-06 14:33 44.61544 9.91663 28862 ft 244 kts 244°
2026-05-06 14:33 44.60952 9.89412 28864 ft 246 kts 244°
2026-05-06 14:33 44.60361 9.87150 28862 ft 246 kts 244°
2026-05-06 14:34 44.59770 9.84902 28865 ft 247 kts 244°
2026-05-06 14:34 44.59179 9.82650 28864 ft 247 kts 244°
2026-05-06 14:34 44.58595 9.80421 28861 ft 240 kts 243°
2026-05-06 14:34 44.58020 9.78229 28854 ft 238 kts 243°
2026-05-06 14:35 44.57438 9.76023 28852 ft 241 kts 244°
2026-05-06 14:35 44.56857 9.73828 28858 ft 244 kts 244°
2026-05-06 14:35 44.56269 9.71590 28862 ft 246 kts 244°
2026-05-06 14:35 44.55668 9.69323 28862 ft 248 kts 244°
2026-05-06 14:36 44.55073 9.67062 28861 ft 249 kts 244°
2026-05-06 14:36 44.54470 9.64781 28864 ft 248 kts 244°
2026-05-06 14:36 44.53868 9.62510 28867 ft 248 kts 244°
2026-05-06 14:36 44.53274 9.60262 28865 ft 248 kts 244°
2026-05-06 14:37 44.52670 9.57979 28864 ft 246 kts 244°
2026-05-06 14:37 44.52078 9.55756 28864 ft 245 kts 244°
2026-05-06 14:37 44.51480 9.53504 28863 ft 246 kts 244°
2026-05-06 14:37 44.50883 9.51258 28861 ft 246 kts 244°
2026-05-06 14:38 44.50291 9.49029 28862 ft 246 kts 244°
2026-05-06 14:38 44.49692 9.46779 28864 ft 246 kts 244°
2026-05-06 14:38 44.49090 9.44527 28871 ft 245 kts 243°
2026-05-06 14:38 44.48507 9.42333 28874 ft 241 kts 243°
2026-05-06 14:39 44.47920 9.40134 28872 ft 238 kts 243°
2026-05-06 14:39 44.47333 9.37948 28866 ft 239 kts 243°
2026-05-06 14:39 44.46752 9.35781 28867 ft 240 kts 243°
2026-05-06 14:39 44.46160 9.33576 28867 ft 241 kts 243°
2026-05-06 14:40 44.45577 9.31393 28877 ft 241 kts 243°
2026-05-06 14:40 44.44983 9.29185 28875 ft 241 kts 243°
2026-05-06 14:40 44.44396 9.27000 28877 ft 243 kts 243°
2026-05-06 14:40 44.43799 9.24781 28876 ft 243 kts 243°
2026-05-06 14:41 44.43207 9.22571 28871 ft 241 kts 243°
2026-05-06 14:41 44.42623 9.20398 28873 ft 240 kts 243°
2026-05-06 14:41 44.42031 9.18208 28872 ft 239 kts 243°
2026-05-06 14:41 44.41445 9.16034 28875 ft 243 kts 243°
2026-05-06 14:42 44.40847 9.13816 28881 ft 243 kts 243°
2026-05-06 14:42 44.40246 9.11596 28883 ft 242 kts 243°
2026-05-06 14:42 44.39656 9.09416 28884 ft 242 kts 243°
2026-05-06 14:42 44.39058 9.07209 28882 ft 240 kts 243°
2026-05-06 14:43 44.38475 9.05043 28884 ft 233 kts 243°
2026-05-06 14:43 44.37902 9.02942 28876 ft 234 kts 243°
2026-05-06 14:43 44.37316 9.00793 28876 ft 236 kts 243°
2026-05-06 14:43 44.36736 8.98665 28879 ft 237 kts 243°
2026-05-06 14:44 44.36150 8.96506 28882 ft 238 kts 243°
2026-05-06 14:44 44.35563 8.94345 28885 ft 239 kts 243°
2026-05-06 14:44 44.34972 8.92173 28885 ft 237 kts 243°
2026-05-06 14:45 44.33807 8.87902 28883 ft 235 kts 243°
2026-05-06 14:45 44.33225 8.85769 28882 ft 234 kts 243°
2026-05-06 14:45 44.32641 8.83637 28880 ft 235 kts 243°
2026-05-06 14:45 44.32055 8.81496 28881 ft 236 kts 243°
2026-05-06 14:46 44.31466 8.79345 28880 ft 237 kts 243°
2026-05-06 14:46 44.30878 8.77208 28880 ft 238 kts 243°
2026-05-06 14:46 44.30281 8.75031 28879 ft 239 kts 243°
2026-05-06 14:46 44.29694 8.72893 28878 ft 238 kts 243°
2026-05-06 14:47 44.29101 8.70736 28853 ft 237 kts 243°
2026-05-06 14:47 44.28506 8.68576 28841 ft 236 kts 242°
2026-05-06 14:47 44.27925 8.66465 28844 ft 235 kts 242°
2026-05-06 14:47 44.27334 8.64325 28843 ft 236 kts 242°
2026-05-06 14:48 44.26746 8.62193 28833 ft 237 kts 242°
2026-05-06 14:48 44.26149 8.60028 28834 ft 238 kts 242°
2026-05-06 14:48 44.25560 8.57897 28835 ft 238 kts 242°
2026-05-06 14:48 44.24961 8.55727 28835 ft 239 kts 242°
2026-05-06 14:49 44.24359 8.53554 28837 ft 239 kts 242°
2026-05-06 14:49 44.23762 8.51395 28836 ft 238 kts 242°
2026-05-06 14:49 44.23172 8.49266 28822 ft 237 kts 242°
2026-05-06 14:49 44.22577 8.47126 28821 ft 236 kts 242°
2026-05-06 14:50 44.21984 8.44993 28823 ft 235 kts 242°
2026-05-06 14:50 44.21392 8.42868 28822 ft 234 kts 242°
2026-05-06 14:50 44.20808 8.40766 28821 ft 235 kts 242°
2026-05-06 14:50 44.20211 8.38626 28824 ft 236 kts 242°
2026-05-06 14:51 44.19612 8.36482 28829 ft 237 kts 242°
2026-05-06 14:51 44.19017 8.34351 28851 ft 239 kts 242°
2026-05-06 14:51 44.18408 8.32172 28829 ft 241 kts 243°
2026-05-06 14:51 44.17805 8.30012 28830 ft 242 kts 243°
2026-05-06 14:52 44.17190 8.27811 28831 ft 244 kts 243°
2026-05-06 14:52 44.16574 8.25603 28835 ft 243 kts 243°
2026-05-06 14:52 44.15965 8.23427 28825 ft 233 kts 242°
2026-05-06 14:52 44.15406 8.21413 28608 ft 220 kts 242°
2026-05-06 14:53 44.14837 8.19410 28407 ft 227 kts 242°
2026-05-06 14:53 44.14238 8.17311 28225 ft 238 kts 243°
2026-05-06 14:53 44.13637 8.15152 28049 ft 238 kts 243°
2026-05-06 14:53 44.13038 8.12998 27813 ft 237 kts 243°
2026-05-06 14:54 44.12440 8.10882 27628 ft 236 kts 243°
2026-05-06 14:54 44.11827 8.08729 27450 ft 241 kts 243°
2026-05-06 14:54 44.11220 8.06580 27267 ft 240 kts 243°
2026-05-06 14:54 44.10615 8.04422 27071 ft 237 kts 243°
2026-05-06 14:55 44.10011 8.02289 26886 ft 237 kts 243°
2026-05-06 14:55 44.09397 8.00133 26711 ft 241 kts 243°
2026-05-06 14:55 44.08782 7.97959 26533 ft 244 kts 243°
2026-05-06 14:55 44.08158 7.95752 26405 ft 242 kts 243°
2026-05-06 14:56 44.07547 7.93597 26226 ft 240 kts 243°
2026-05-06 14:56 44.06931 7.91433 26043 ft 241 kts 243°
2026-05-06 14:56 44.06309 7.89236 25871 ft 244 kts 243°
2026-05-06 14:56 44.05686 7.87047 25712 ft 246 kts 243°
2026-05-06 14:57 44.05063 7.84862 25522 ft 244 kts 243°
2026-05-06 14:57 44.04431 7.82635 25351 ft 247 kts 243°
2026-05-06 14:57 44.03800 7.80421 25188 ft 247 kts 243°
2026-05-06 14:57 44.03094 7.78262 25029 ft 243 kts 238°
2026-05-06 14:58 44.02200 7.76301 24858 ft 241 kts 232°
2026-05-06 14:58 44.01125 7.74512 24685 ft 239 kts 226°
2026-05-06 14:58 43.99889 7.72932 24511 ft 241 kts 220°
2026-05-06 14:58 43.98534 7.71591 24353 ft 242 kts 217°
2026-05-06 14:59 43.97127 7.70252 24193 ft 246 kts 217°
2026-05-06 14:59 43.95713 7.68889 24024 ft 247 kts 217°
2026-05-06 14:59 43.94312 7.67548 23856 ft 246 kts 217°
2026-05-06 14:59 43.92896 7.66200 23697 ft 246 kts 217°
2026-05-06 15:00 43.91477 7.64844 23537 ft 246 kts 217°
2026-05-06 15:00 43.90542 7.63952 23434 ft 247 kts 217°
2026-05-06 15:00 43.88656 7.62162 23173 ft 246 kts 217°
2026-05-06 15:00 43.87237 7.60810 22985 ft 249 kts 217°
2026-05-06 15:01 43.85803 7.59439 22859 ft 248 kts 217°
2026-05-06 15:01 43.84851 7.58533 22865 ft 252 kts 217°
2026-05-06 15:01 43.82927 7.56704 22850 ft 252 kts 217°
2026-05-06 15:01 43.81473 7.55327 22847 ft 253 kts 217°
2026-05-06 15:02 43.80025 7.53950 22845 ft 252 kts 218°
2026-05-06 15:02 43.79070 7.53045 22847 ft 251 kts 218°
2026-05-06 15:02 43.77620 7.51669 22837 ft 253 kts 218°
2026-05-06 15:02 43.76165 7.50290 22839 ft 253 kts 218°
2026-05-06 15:03 43.74707 7.48907 22830 ft 254 kts 218°
2026-05-06 15:03 43.73244 7.47521 22831 ft 255 kts 218°
2026-05-06 15:03 43.71796 7.46152 22831 ft 255 kts 218°
2026-05-06 15:03 43.70332 7.44766 22830 ft 255 kts 218°
2026-05-06 15:04 43.68861 7.43376 22829 ft 255 kts 217°
2026-05-06 15:04 43.67387 7.41986 22828 ft 256 kts 217°
2026-05-06 15:04 43.65926 7.40606 22828 ft 256 kts 217°
2026-05-06 15:04 43.64448 7.39213 22827 ft 256 kts 217°
2026-05-06 15:05 43.63019 7.37753 22825 ft 254 kts 223°
2026-05-06 15:05 43.61772 7.36064 22824 ft 254 kts 229°
2026-05-06 15:05 43.60681 7.34129 22823 ft 254 kts 234°
2026-05-06 15:05 43.59671 7.32157 22823 ft 254 kts 233°
2026-05-06 15:06 43.58641 7.30185 22848 ft 253 kts 233°
2026-05-06 15:06 43.57613 7.28205 22848 ft 254 kts 234°
2026-05-06 15:06 43.56582 7.26212 22849 ft 254 kts 234°
2026-05-06 15:06 43.55562 7.24246 22849 ft 255 kts 233°
2026-05-06 15:07 43.54525 7.22249 22848 ft 255 kts 233°
2026-05-06 15:07 43.53489 7.20257 22849 ft 255 kts 233°
2026-05-06 15:07 43.52456 7.18271 22851 ft 255 kts 233°
2026-05-06 15:07 43.51432 7.16300 22851 ft 255 kts 233°
2026-05-06 15:08 43.50389 7.14300 22851 ft 256 kts 233°
2026-05-06 15:08 43.49359 7.12323 22851 ft 256 kts 233°
2026-05-06 15:08 43.48317 7.10322 22851 ft 256 kts 233°
2026-05-06 15:08 43.47290 7.08351 22851 ft 256 kts 233°
2026-05-06 15:09 43.46248 7.06355 22851 ft 256 kts 233°
2026-05-06 15:09 43.45205 7.04358 22852 ft 256 kts 233°
2026-05-06 15:09 43.44162 7.02361 22852 ft 256 kts 233°
2026-05-06 15:09 43.43131 7.00391 22852 ft 256 kts 233°
2026-05-06 15:10 43.42084 6.98394 22852 ft 256 kts 233°
2026-05-06 15:10 43.41038 6.96398 22848 ft 255 kts 233°
2026-05-06 15:10 43.40013 6.94440 22848 ft 256 kts 233°
2026-05-06 15:10 43.38966 6.92446 22848 ft 256 kts 233°
2026-05-06 15:11 43.37931 6.90473 22850 ft 256 kts 233°
2026-05-06 15:11 43.36880 6.88474 22851 ft 257 kts 233°
2026-05-06 15:11 43.35835 6.86482 22852 ft 257 kts 233°
2026-05-06 15:11 43.34785 6.84485 22852 ft 257 kts 233°
2026-05-06 15:12 43.33747 6.82514 22867 ft 257 kts 233°
2026-05-06 15:12 43.32692 6.80508 22867 ft 256 kts 233°
2026-05-06 15:12 43.31658 6.78547 22867 ft 256 kts 233°
2026-05-06 15:12 43.30612 6.76563 22720 ft 256 kts 233°
2026-05-06 15:13 43.29568 6.74586 22400 ft 252 kts 233°
2026-05-06 15:13 43.28555 6.72669 22074 ft 249 kts 234°
2026-05-06 15:13 43.27523 6.70714 21744 ft 253 kts 234°
2026-05-06 15:13 43.26491 6.68766 21415 ft 256 kts 234°
2026-05-06 15:14 43.25435 6.66768 21076 ft 258 kts 234°
2026-05-06 15:14 43.24390 6.64793 20737 ft 258 kts 234°
2026-05-06 15:14 43.23432 6.62706 20393 ft 257 kts 241°
2026-05-06 15:14 43.22718 6.60461 20063 ft 260 kts 248°
2026-05-06 15:15 43.22241 6.58032 19719 ft 266 kts 255°
2026-05-06 15:15 43.22033 6.55513 19354 ft 270 kts 263°
2026-05-06 15:15 43.22062 6.52922 18998 ft 270 kts 266°
2026-05-06 15:15 43.22101 6.50337 18639 ft 270 kts 266°
2026-05-06 15:16 43.22131 6.47788 18286 ft 270 kts 266°
2026-05-06 15:16 43.22169 6.45200 17901 ft 273 kts 267°
2026-05-06 15:16 43.22201 6.42548 17529 ft 280 kts 267°
2026-05-06 15:16 43.22238 6.39858 17157 ft 280 kts 268°
2026-05-06 15:17 43.22282 6.37216 16789 ft 280 kts 268°
2026-05-06 15:17 43.22322 6.34540 16419 ft 281 kts 268°
2026-05-06 15:17 43.22361 6.31879 16053 ft 282 kts 268°
2026-05-06 15:17 43.22399 6.29195 15719 ft 281 kts 268°
2026-05-06 15:18 43.22440 6.26521 15353 ft 280 kts 268°
2026-05-06 15:18 43.22475 6.23838 14987 ft 280 kts 268°
2026-05-06 15:18 43.22510 6.21188 14621 ft 281 kts 269°
2026-05-06 15:18 43.22546 6.18502 14251 ft 281 kts 269°
2026-05-06 15:19 43.22581 6.15816 13879 ft 280 kts 269°
2026-05-06 15:19 43.22614 6.13178 13493 ft 277 kts 269°
2026-05-06 15:19 43.22643 6.10539 13117 ft 274 kts 269°
2026-05-06 15:19 43.22663 6.07952 12766 ft 276 kts 269°
2026-05-06 15:20 43.22687 6.05310 12397 ft 276 kts 269°
2026-05-06 15:20 43.22712 6.02695 12033 ft 273 kts 269°
2026-05-06 15:20 43.22845 6.00110 11705 ft 269 kts 276°
2026-05-06 15:20 43.23119 5.97551 11421 ft 274 kts 276°
2026-05-06 15:21 43.23366 5.94982 11136 ft 270 kts 275°
2026-05-06 15:21 43.23610 5.92443 10846 ft 268 kts 276°
2026-05-06 15:21 43.23862 5.89879 10561 ft 270 kts 276°
2026-05-06 15:21 43.24110 5.87368 10273 ft 266 kts 275°
2026-05-06 15:22 43.24354 5.84853 9986 ft 265 kts 275°
2026-05-06 15:22 43.24599 5.82352 9692 ft 264 kts 275°
2026-05-06 15:22 43.24840 5.79861 9398 ft 264 kts 276°
2026-05-06 15:22 43.25081 5.77381 9124 ft 264 kts 276°
2026-05-06 15:23 43.25321 5.74895 8841 ft 259 kts 276°
2026-05-06 15:23 43.25556 5.72471 8566 ft 259 kts 276°
2026-05-06 15:23 43.25795 5.69988 8294 ft 263 kts 277°
2026-05-06 15:23 43.26029 5.67532 8011 ft 257 kts 277°
2026-05-06 15:24 43.26266 5.65095 7733 ft 257 kts 277°
2026-05-06 15:24 43.26497 5.62687 7530 ft 258 kts 277°
2026-05-06 15:24 43.26671 5.60236 7269 ft 256 kts 271°
2026-05-06 15:24 43.26447 5.57822 7006 ft 257 kts 258°
2026-05-06 15:25 43.25962 5.55464 6727 ft 255 kts 256°
2026-05-06 15:25 43.25491 5.53143 6458 ft 254 kts 257°
2026-05-06 15:25 43.25025 5.50800 6181 ft 253 kts 257°
2026-05-06 15:25 43.24564 5.48497 5904 ft 253 kts 257°
2026-05-06 15:26 43.24096 5.46182 5632 ft 249 kts 257°
2026-05-06 15:26 43.23644 5.43953 5370 ft 236 kts 256°
2026-05-06 15:26 43.23222 5.41871 5117 ft 223 kts 257°
2026-05-06 15:26 43.22929 5.39745 4851 ft 227 kts 270°
2026-05-06 15:27 43.23136 5.37714 4545 ft 207 kts 285°
2026-05-06 15:27 43.23718 5.35972 4267 ft 197 kts 300°
2026-05-06 15:27 43.24601 5.34555 3998 ft 196 kts 315°
2026-05-06 15:27 43.25749 5.33514 3725 ft 201 kts 330°
2026-05-06 15:28 43.27070 5.32955 3450 ft 198 kts 346°
2026-05-06 15:28 43.28418 5.32875 3181 ft 187 kts 355°
2026-05-06 15:28 43.29655 5.32775 3000 ft 165 kts 343°
2026-05-06 15:28 43.30688 5.32348 2990 ft 152 kts 339°
2026-05-06 15:29 43.31732 5.31960 2996 ft 158 kts 340°
2026-05-06 15:29 43.32803 5.31554 3003 ft 161 kts 340°
2026-05-06 15:29 43.33868 5.31152 2941 ft 155 kts 340°
2026-05-06 15:29 43.34903 5.30757 2676 ft 153 kts 340°
2026-05-06 15:30 43.35917 5.30370 2407 ft 153 kts 339°
2026-05-06 15:30 43.36943 5.29971 2132 ft 152 kts 339°
2026-05-06 15:30 43.37930 5.29502 1855 ft 150 kts 324°
2026-05-06 15:30 43.38698 5.28579 1590 ft 145 kts 307°
2026-05-06 15:31 43.39390 5.27577 1386 ft 137 kts 308°
2026-05-06 15:31 43.39995 5.26764 1116 ft 109 kts 309°
2026-05-06 15:31 43.40504 5.26099 904 ft 93 kts 301°
2026-05-06 15:32 43.41324 5.24838 590 ft 84 kts 308°
2026-05-06 15:32 43.41727 5.24272 432 ft 83 kts 308°
2026-05-06 15:32 43.42132 5.23695 307 ft 86 kts 308°
2026-05-06 15:32 43.42547 5.23117 219 ft 87 kts 303°
2026-05-06 15:33 43.42977 5.22498 104 ft 91 kts 306°
2026-05-06 15:33 43.43402 5.21891 32 ft 77 kts 304°
2026-05-06 15:33 43.43703 5.21460 30 ft 48 kts 315°
2026-05-06 15:33 43.43871 5.21219 30 ft 27 kts 315°
2026-05-06 15:34 43.44014 5.21122 31 ft 21 kts 345°
2026-05-06 15:34 43.44083 5.21094 31 ft 5 kts 344°
2026-05-06 15:34 43.44116 5.21081 30 ft 6 kts 350°
2026-05-06 15:34 43.44168 5.21105 31 ft 11 kts 45°
2026-05-06 15:35 43.44215 5.21210 31 ft 14 kts 61°
2026-05-06 15:35 43.44294 5.21264 31 ft 14 kts 350°
2026-05-06 15:35 43.44328 5.21308 31 ft 0 kts 60°